CW3512 Weather Reports


time (UTC)temp
C
wind
direction
speed
KPH
gust
KPH
rain 1hr
cm
rain 24hr
cm
rain mn
cm
humidity
%
barometer
mb
20260507191519 16 0.0 0.0 0.00 0.08 0.03 41 1014.2
20260507190518 16 0.0 0.0 0.00 0.08 0.03 42 1014.3
20260507185518 16 0.0 0.0 0.00 0.08 0.03 45 1014.4
20260507184519 16 0.0 0.0 0.00 0.08 0.03 42 1014.4
20260507183518 16 0.0 0.0 0.00 0.08 0.03 45 1014.4
20260507182519 16 0.0 1.6 0.00 0.08 0.03 43 1014.5
20260507181518 16 0.0 3.2 0.00 0.08 0.03 48 1014.5
20260507180520 15 0.0 4.8 0.00 0.08 0.03 47 1014.4
20260507175519 15 0.0 1.6 0.00 0.08 0.03 46 1014.4
20260507174518 16 0.0 0.0 0.00 0.08 0.03 47 1014.7
20260507173518 16 0.0 0.0 0.00 0.08 0.03 48 1014.9
20260507172519 15 0.0 4.8 0.00 0.08 0.03 48 1014.8
20260507171538 15 0.0 3.2 0.00 0.08 0.03 44 1015.1
20260507170518 15 293 1.6 8.0 0.00 0.08 0.03 49 1015.3
20260507165518 15 0.0 0.0 0.00 0.08 0.03 51 1015.4
20260507164518 15 0.0 0.0 0.00 0.08 0.03 47 1015.6
20260507163518 14 0.0 0.0 0.00 0.08 0.03 49 1015.3
20260507162518 14 0.0 0.0 0.00 0.10 0.03 52 1015.5
20260507161518 14 0.0 6.4 0.00 0.10 0.03 48 1015.5
20260507160538 14 0.0 8.0 0.00 0.10 0.03 51 1015.6
20260507155518 14 0.0 1.6 0.00 0.10 0.03 51 1015.6
20260507154518 14 0.0 0.0 0.00 0.10 0.03 51 1015.6
20260507153538 13 0.0 0.0 0.03 0.10 0.03 53 1015.5
20260507152538 14 0.0 0.0 0.03 0.10 0.03 49 1015.5
20260507151518 13 0.0 0.0 0.03 0.10 0.03 53 1015.4
20260507150518 13 0.0 0.0 0.03 0.10 0.03 54 1015.3
20260507145518 13 0.0 0.0 0.03 0.10 0.03 52 1015.4
20260507144519 13 0.0 0.0 0.03 0.10 0.03 52 1015.3
20260507143519 13 0.0 0.0 0.00 0.08 0.00 53 1015.3
20260507142538 13 0.0 0.0 0.00 0.08 0.00 54 1015.2
20260507141519 12 0.0 4.8 0.00 0.08 0.00 57 1015.4
20260507140519 12 0.0 1.6 0.00 0.08 0.00 55 1015.4
20260507135519 12 0.0 0.0 0.00 0.08 0.00 56 1015.3
20260507134538 12 0.0 0.0 0.00 0.08 0.00 60 1015.3
20260507133519 11 0.0 0.0 0.00 0.08 0.00 63 1015.3
20260507132518 11 0.0 0.0 0.00 0.08 0.00 62 1015.4
20260507131518 11 0.0 0.0 0.00 0.08 0.00 62 1015.3
20260507130518 11 0.0 0.0 0.00 0.08 0.00 67 1015.4
20260507125520 10 0.0 0.0 0.00 0.08 0.00 70 1015.3
20260507124520 10 0.0 0.0 0.00 0.08 0.00 72 1015.4
20260507123540 10 0.0 0.0 0.00 0.08 0.00 74 1015.5
20260507122520 9 0.0 0.0 0.00 0.08 0.00 76 1015.5
20260507121520 8 0.0 0.0 0.00 0.08 0.00 80 1015.4
20260507120521 8 0.0 1.6 0.00 0.08 0.00 83 1015.4
20260507115540 7 0.0 0.0 0.00 0.08 0.00 86 1015.2
20260507114540 7 0.0 0.0 0.00 0.08 0.00 89 1015.2
20260507113540 6 0.0 0.0 0.00 0.08 0.00 90 1015.0
20260507112519 6 0.0 0.0 0.00 0.08 0.00 90 1015.0
20260507111520 6 0.0 0.0 0.00 0.08 0.00 90 1014.8
20260507110540 6 0.0 0.0 0.00 0.08 0.00 90 1014.6
20260507105520 6 0.0 0.0 0.00 0.08 0.00 90 1014.5
20260507104521 6 0.0 0.0 0.00 0.08 0.00 90 1014.4
20260507103520 6 0.0 0.0 0.00 0.08 0.00 89 1014.4
20260507102520 6 0.0 0.0 0.00 0.08 0.00 89 1014.3
20260507101520 6 0.0 0.0 0.00 0.08 0.00 89 1014.3
20260507100540 7 0.0 0.0 0.00 0.08 0.00 89 1014.4
20260507095520 7 0.0 0.0 0.00 0.08 0.00 88 1014.3
20260507094520 7 0.0 0.0 0.00 0.08 0.00 88 1014.3
20260507093519 7 0.0 0.0 0.00 0.08 0.00 88 1014.4
20260507092600 7 0.0 0.0 0.00 0.08 0.00 88 1014.3
20260507091519 7 0.0 0.0 0.00 0.08 0.00 87 1014.3
20260507090520 7 0.0 0.0 0.00 0.08 0.00 87 1014.3
20260507085521 7 0.0 0.0 0.00 0.08 0.00 86 1014.2
20260507084520 7 0.0 0.0 0.00 0.08 0.00 86 1014.2
20260507083519 8 0.0 0.0 0.00 0.08 0.00 86 1014.2
20260507082519 8 0.0 0.0 0.00 0.08 0.00 86 1014.0
20260507081519 8 0.0 0.0 0.00 0.08 0.00 85 1014.0
20260507080524 8 0.0 0.0 0.00 0.08 0.00 85 1014.0
20260507075519 8 0.0 0.0 0.00 0.08 0.00 85 1014.0
20260507074519 8 0.0 0.0 0.00 0.08 0.00 85 1013.8
20260507073519 9 0.0 0.0 0.00 0.08 0.00 84 1014.0
20260507072520 9 0.0 0.0 0.00 0.08 0.00 84 1014.2
20260507071600 9 0.0 0.0 0.00 0.08 0.00 85 1014.1
20260507070519 9 0.0 0.0 0.00 0.10 0.00 85 1014.1
20260507065519 9 0.0 0.0 0.00 0.10 0.00 85 1014.1
20260507064540 9 0.0 0.0 0.00 0.10 0.00 84 1014.1
20260507063519 10 0.0 0.0 0.00 0.10 0.00 84 1013.9
20260507062519 10 0.0 0.0 0.00 0.10 0.00 83 1014.3
20260507061519 10 0.0 0.0 0.00 0.10 0.00 81 1014.5
20260507060519 10 0.0 0.0 0.00 0.10 0.00 80 1014.5
20260507055519 10 0.0 0.0 0.00 0.10 0.00 80 1014.4
20260507054519 10 0.0 0.0 0.00 0.10 0.00 81 1014.1
20260507053519 10 0.0 0.0 0.00 0.10 0.00 81 1014.1
20260507052519 10 0.0 0.0 0.00 0.10 0.00 81 1014.1
20260507051519 10 0.0 0.0 0.00 0.10 0.00 81 1014.3
20260507050520 11 0.0 0.0 0.00 0.10 0.00 81 1014.3
20260507045520 11 0.0 0.0 0.00 0.10 0.00 80 1014.2
20260507044519 11 0.0 0.0 0.00 0.10 0.00 79 1014.2
20260507043520 11 0.0 0.0 0.00 0.10 0.00 77 1014.4
20260507042519 11 0.0 0.0 0.00 0.10 0.00 77 1014.4
20260507041539 11 0.0 0.0 0.00 0.10 0.00 77 1014.4
20260507040600 11 0.0 0.0 0.03 0.10 0.00 76 1014.6
20260507035520 11 0.0 0.0 0.03 0.10 0.10 76 1014.6
20260507034519 12 0.0 0.0 0.03 0.10 0.10 75 1014.6
20260507033519 12 0.0 0.0 0.03 0.10 0.10 74 1014.6
20260507032519 12 0.0 0.0 0.03 0.10 0.10 75 1014.5
20260507031519 12 0.0 0.0 0.03 0.10 0.10 74 1014.4
20260507030519 12 0.0 0.0 0.00 0.08 0.08 72 1014.4
20260507025520 12 0.0 0.0 0.00 0.08 0.08 72 1014.3
20260507024520 12 0.0 0.0 0.00 0.08 0.08 71 1013.9
20260507023519 12 0.0 0.0 0.00 0.08 0.08 72 1013.8
20260507022519 13 0.0 0.0 0.00 0.08 0.08 72 1013.7
20260507021519 13 0.0 0.0 0.00 0.08 0.08 74 1013.4
20260507020520 13 0.0 0.0 0.00 0.08 0.08 74 1013.3
20260507015519 13 0.0 0.0 0.00 0.08 0.08 75 1013.2
20260507014519 13 0.0 0.0 0.00 0.08 0.08 75 1013.1
20260507013519 13 0.0 0.0 0.00 0.08 0.08 75 1013.3
20260507012539 13 0.0 0.0 0.00 0.08 0.08 74 1013.5
20260507011559 13 0.0 0.0 0.00 0.08 0.08 73 1013.3
20260507010541 13 0.0 0.0 0.00 0.08 0.08 73 1013.4
20260507005519 13 0.0 0.0 0.00 0.08 0.08 73 1013.3
20260507004519 13 0.0 0.0 0.00 0.08 0.08 71 1013.2
20260507003519 13 0.0 0.0 0.00 0.08 0.08 71 1013.1
20260507002519 13 0.0 0.0 0.00 0.08 0.08 69 1013.1
20260507001519 13 0.0 0.0 0.00 0.08 0.08 70 1012.9
20260507000519 13 0.0 0.0 0.00 0.08 0.08 72 1012.7
20260506235519 13 0.0 0.0 0.00 0.08 0.08 70 1012.6
20260506234518 14 0.0 0.0 0.00 0.08 0.08 70 1012.9
20260506233519 14 0.0 0.0 0.00 0.08 0.08 70 1012.2
20260506232519 14 0.0 0.0 0.00 0.08 0.08 70 1012.5
20260506231518 15 0.0 0.0 0.00 0.08 0.08 69 1012.6
20260506230518 15 0.0 0.0 0.00 0.08 0.08 71 1012.5
20260506225518 15 0.0 0.0 0.00 0.08 0.08 70 1011.8
20260506224519 15 0.0 0.0 0.00 0.08 0.08 70 1011.9
20260506223519 15 0.0 0.0 0.00 0.08 0.08 69 1012.6
20260506222518 15 0.0 0.0 0.00 0.08 0.08 69 1011.9
20260506221539 15 0.0 0.0 0.00 0.08 0.08 70 1011.7
20260506220518 15 0.0 0.0 0.00 0.08 0.08 71 1012.1
20260506215518 15 0.0 0.0 0.00 0.08 0.08 72 1012.3
20260506214519 15 0.0 0.0 0.00 0.08 0.08 74 1012.4
20260506213518 15 0.0 0.0 0.00 0.08 0.08 72 1012.6
20260506212518 16 0.0 0.0 0.00 0.08 0.08 72 1012.6
20260506211518 15 0.0 0.0 0.00 0.08 0.08 71 1012.4
20260506210520 15 0.0 0.0 0.00 0.08 0.08 72 1012.3
20260506205518 15 0.0 0.0 0.03 0.08 0.08 72 1012.2
20260506204518 16 0.0 0.0 0.03 0.08 0.08 72 1012.3
20260506203518 16 0.0 0.0 0.03 0.08 0.08 72 1012.2
20260506202518 16 0.0 0.0 0.03 0.08 0.08 71 1012.3
20260506201519 15 0.0 0.0 0.03 0.08 0.08 73 1012.5
20260506200519 16 0.0 0.0 0.03 0.08 0.08 72 1012.7
20260506195539 16 0.0 0.0 0.00 0.05 0.05 73 1012.7
20260506194519 16 0.0 0.0 0.00 0.05 0.05 71 1012.8
20260506193519 16 0.0 0.0 0.00 0.05 0.05 72 1012.8
20260506192600 16 0.0 0.0 0.00 0.05 0.05 71 1012.7